Location: Acton
(51.4942°N, 0.2232°W)
Time: 13:11:37
(UTC+00:00)

Okean 1-7 Rocket - Pass Details

Date: 19 January 2021
Orbit: 615 x 650 km, 82.5° (Epoch: 28 February)

Event Time Altitude Azimuth Distance (km) Brightness Sun altitude
Exits shadow 04:38:32 17° 17° (NNE) 1,627 5.9 -30.1°
Maximum altitude 04:41:16 31° 69° (ENE) 1,141 5.4 -29.7°
Drops below altitude 10° 04:45:18 10° 132° (SE) 2,035 6.7 -29.1°
Sets 04:47:45 0° 143° (SE) 2,934 7.5 -28.7°
